Time,TemperatureF,DewpointF,PressureIn,WindDirection,WindDirectionDegrees,WindSpeedMPH,WindSpeedGustMPH,Humidity,HourlyPrecipIn,Conditions,Clouds,dailyrainin,SoftwareType,DateUTC
2016-07-29 00:12:00,65.0,61.0,-100.00,NE,42,2.0,7.0,86,-99.99,,,-99.99,,2016-07-29 05:12:00,
2016-07-29 00:43:00,65.0,61.0,-100.00,NE,42,2.0,-999.0,86,-99.99,,,-99.99,,2016-07-29 05:43:00,
2016-07-29 00:53:00,65.0,61.0,-100.00,NE,42,2.0,-999.0,86,-99.99,,,-99.99,,2016-07-29 05:53:00,
2016-07-29 01:05:00,65.0,61.0,-100.00,NE,42,-999.9,-999.0,86,-99.99,,,-99.99,,2016-07-29 06:05:00,
2016-07-29 01:12:00,66.0,60.0,-100.00,ENE,59,3.0,10.0,82,-99.99,,,-99.99,,2016-07-29 06:12:00,
2016-07-29 01:39:00,66.0,60.0,-100.00,ENE,59,3.0,-999.0,82,-99.99,,,-99.99,,2016-07-29 06:39:00,
2016-07-29 01:46:00,66.0,60.0,-100.00,ENE,59,3.0,10.0,82,-99.99,,,-99.99,,2016-07-29 06:46:00,
2016-07-29 01:58:00,66.0,60.0,-100.00,ENE,59,3.0,10.0,82,-99.99,,,-99.99,,2016-07-29 06:58:00,
2016-07-29 02:06:00,66.0,60.0,-100.00,ENE,59,3.0,10.0,82,-99.99,,,-99.99,,2016-07-29 07:06:00,
2016-07-29 02:12:00,64.0,56.0,-100.00,ENE,58,4.0,10.0,76,-99.99,,,-99.99,,2016-07-29 07:12:00,
2016-07-29 02:50:00,64.0,56.0,-100.00,ENE,58,4.0,10.0,76,-99.99,,,-99.99,,2016-07-29 07:50:00,
2016-07-29 02:57:00,64.0,56.0,-100.00,ENE,58,4.0,10.0,76,-99.99,,,-99.99,,2016-07-29 07:57:00,
2016-07-29 03:03:00,64.0,56.0,-100.00,ENE,58,4.0,10.0,76,-99.99,,,-99.99,,2016-07-29 08:03:00,
2016-07-29 03:12:00,60.0,57.0,-100.00,NE,38,2.0,9.0,91,-99.99,,,-99.99,,2016-07-29 08:12:00,
2016-07-29 03:34:00,60.0,57.0,-100.00,NE,38,2.0,9.0,91,-99.99,,,-99.99,,2016-07-29 08:34:00,
2016-07-29 03:46:00,60.0,57.0,-100.00,NE,38,2.0,9.0,91,-99.99,,,-99.99,,2016-07-29 08:46:00,
2016-07-29 03:54:00,60.0,57.0,-100.00,NE,38,2.0,9.0,91,-99.99,,,-99.99,,2016-07-29 08:54:00,
2016-07-29 04:04:00,60.0,57.0,-100.00,NE,38,2.0,9.0,91,-99.99,,,-99.99,,2016-07-29 09:04:00,
2016-07-29 04:12:00,59.0,57.0,-100.00,North,5,2.0,-999.0,93,-99.99,,,-99.99,,2016-07-29 09:12:00,
2016-07-29 04:41:00,59.0,57.0,-100.00,North,5,2.0,-999.0,93,-99.99,,,-99.99,,2016-07-29 09:41:00,
2016-07-29 05:11:00,59.0,57.0,-100.00,North,5,-999.9,-999.0,93,-99.99,,,-99.99,,2016-07-29 10:11:00,
2016-07-29 05:12:00,58.0,56.0,-100.00,North,2,1.0,-999.0,94,-99.99,,,-99.99,,2016-07-29 10:12:00,
2016-07-29 05:41:00,58.0,56.0,-100.00,North,2,-999.9,-999.0,94,-99.99,,,-99.99,,2016-07-29 10:41:00,
2016-07-29 06:12:00,59.0,57.0,-100.00,NNE,29,1.0,-999.0,94,-99.99,,,-99.99,,2016-07-29 11:12:00,
2016-07-29 06:50:00,59.0,57.0,-100.00,NNE,29,1.0,5.0,94,-99.99,,,-99.99,,2016-07-29 11:50:00,
2016-07-29 06:56:00,59.0,57.0,-100.00,NNE,29,1.0,5.0,94,-99.99,,,-99.99,,2016-07-29 11:56:00,
2016-07-29 07:12:00,59.0,57.0,-100.00,NNE,13,2.0,-999.0,93,-99.99,,,-99.99,,2016-07-29 12:12:00,
2016-07-29 07:40:00,59.0,57.0,-100.00,NNE,13,2.0,-999.0,93,-99.99,,,-99.99,,2016-07-29 12:40:00,
2016-07-29 07:47:00,59.0,57.0,-100.00,NNE,13,2.0,7.0,93,-99.99,,,-99.99,,2016-07-29 12:47:00,
2016-07-29 07:58:00,59.0,57.0,-100.00,NNE,13,2.0,7.0,93,-99.99,,,-99.99,,2016-07-29 12:58:00,
2016-07-29 08:08:00,59.0,57.0,-100.00,NNE,13,2.0,7.0,93,-99.99,,,-99.99,,2016-07-29 13:08:00,
2016-07-29 08:12:00,61.0,59.0,-100.00,NE,44,2.0,8.0,92,-99.99,,,-99.99,,2016-07-29 13:12:00,
2016-07-29 08:41:00,61.0,59.0,-100.00,NE,44,2.0,-999.0,92,-99.99,,,-99.99,,2016-07-29 13:41:00,
2016-07-29 08:51:00,61.0,59.0,-100.00,NE,44,2.0,-999.0,92,-99.99,,,-99.99,,2016-07-29 13:51:00,
2016-07-29 08:57:00,61.0,59.0,-100.00,NE,44,2.0,8.0,92,-99.99,,,-99.99,,2016-07-29 13:57:00,
2016-07-29 09:04:00,61.0,59.0,-100.00,NE,44,2.0,8.0,92,-99.99,,,-99.99,,2016-07-29 14:04:00,
2016-07-29 09:12:00,62.0,59.0,-100.00,ENE,57,1.0,8.0,91,-99.99,,,-99.99,,2016-07-29 14:12:00,
2016-07-29 09:34:00,62.0,59.0,-100.00,ENE,57,1.0,8.0,91,-99.99,,,-99.99,,2016-07-29 14:34:00,
2016-07-29 09:55:00,62.0,59.0,-100.00,ENE,57,1.0,8.0,91,-99.99,,,-99.99,,2016-07-29 14:55:00,
2016-07-29 10:03:00,62.0,59.0,-100.00,ENE,57,1.0,8.0,91,-99.99,,,-99.99,,2016-07-29 15:03:00,
2016-07-29 10:12:00,64.0,61.0,-100.00,NNE,30,2.0,-999.0,91,-99.99,,,-99.99,,2016-07-29 15:12:00,
2016-07-29 10:43:00,64.0,61.0,-100.00,NNE,30,2.0,-999.0,91,-99.99,,,-99.99,,2016-07-29 15:43:00,
2016-07-29 10:53:00,64.0,61.0,-100.00,NNE,30,2.0,-999.0,91,-99.99,,,-99.99,,2016-07-29 15:53:00,
2016-07-29 11:12:00,66.0,62.0,-100.00,ENE,58,-999.9,-999.0,87,-99.99,,,-99.99,,2016-07-29 16:12:00,
2016-07-29 11:43:00,66.0,62.0,-100.00,North,-9999,-999.9,-999.0,87,-99.99,,,-99.99,,2016-07-29 16:43:00,
2016-07-29 12:12:00,66.0,62.0,-100.00,NE,45,2.0,-999.0,87,-99.99,,,-99.99,,2016-07-29 17:12:00,
2016-07-29 12:58:00,66.0,62.0,-100.00,NE,45,2.0,-999.0,87,-99.99,,,-99.99,,2016-07-29 17:58:00,
2016-07-29 13:37:00,67.0,63.0,-100.00,NNE,27,3.0,9.0,86,-99.99,,,-99.99,,2016-07-29 18:37:00,
2016-07-29 13:54:00,67.0,63.0,-100.00,NNE,27,3.0,-999.0,86,-99.99,,,-99.99,,2016-07-29 18:54:00,